Location: Alafon
(8.4500°N, 4.2333°E)
Time: 18:37:26
(UTC+00:00)

Vanguard 2 - Pass Details

Date: 06 August 2021
Orbit: 553 x 2937 km, 32.9° (Epoch: 26 September)

Event Time Altitude Azimuth Distance (km) Brightness Sun altitude
Rises 01:24:58 0° 270° (W) 3,725 - -55.4°
Reaches altitude 10° 01:29:10 10° 292° (WNW) 2,370 - -54.7°
Maximum altitude 01:32:07 15° 327° (NNW) 1,826 - -54.2°
Drops below altitude 10° 01:34:40 10° 2° (N) 1,968 - -53.8°
Sets 01:37:38 0° 29° (NNE) 2,742 - -53.2°
